Alexandria, LA

9:49 AM CST on February 20, 2017 (GMT -0600)
Alexandria International

Weather History for KAEX - September, 2012

Change the Weather History Date:

Thursday, September 20, 2012

  Actual Average Record
Temperature  
Mean Temperature 67 °F 76 °F  
Max Temperature 83 °F 87 °F 101 °F (2005)
Min Temperature 51 °F 65 °F 47 °F (1903)
Degree Days  
Heating Degree Days 0 0  
Month to date heating degree days 0 0  
Since 1 July heating degree days 0 0  
Cooling Degree Days 2 11  
Month to date cooling degree days 276 272  
Year to date cooling degree days 2566 2259  
Growing Degree Days 17 (Base 50)    
Moisture  
Dew Point 53 °F    
Average Humidity 67    
Maximum Humidity 100    
Minimum Humidity 33    
Precipitation  
Precipitation 0.00 in 0.09 in 4.76 in (1947)
Month to date precipitation 1.41 1.65  
Year to date precipitation 44.95 37.88  
Sea Level Pressure  
Sea Level Pressure 30.06 in    
Wind  
Wind Speed 1 mph (NE)    
Max Wind Speed 8 mph    
Max Gust Speed 13 mph    
Visibility 10 miles    
Events      
T = Trace of Precipitation, MM = Missing Value Source: NWS Daily Summary

Daily Weather History Graph

Daily Weather History Graph

Search for Another Location

Airport or City:

Trip Planner

Search our weather history database for the weather conditions in past years. The results will help you decide how hot, cold, wet, or windy it might be!

Date:

Astronomy

Sep. 20, 2012 Rise Set
Actual Time 6:57 AM CDT 7:08 PM CDT
Civil Twilight 6:33 AM CDT 7:32 PM CDT
Nautical Twilight 6:05 AM CDT 8:01 PM CDT
Astronomical Twilight 5:36 AM CDT 8:29 PM CDT
Moon 11:54 AM CDT 10:33 PM CDT
Length of Visible Light 12h 59m
Length of Day
12h 11m
Waxing Crescent, 27% of the Moon is Illuminated
Sep 20
Waxing Crescent
Sep 22
First Quarter
Sep 29
Full
Oct 8
Last Quarter
Oct 15
New

Hourly Weather History & Observations

Time (CDT) Temp. Dew Point Humidity Pressure Visibility Wind Dir Wind Speed Gust Speed Precip Events Conditions
12:53 AM 55.9 °F 54.0 °F 93% 30.09 in 10.0 mi Calm Calm - N/A   Clear
1:53 AM 55.0 °F 54.0 °F 96% 30.09 in 10.0 mi Calm Calm - N/A   Clear
2:53 AM 55.9 °F 54.0 °F 93% 30.09 in 7.0 mi Calm Calm - N/A   Clear
3:53 AM 54.0 °F 53.1 °F 97% 30.08 in 7.0 mi Calm Calm - N/A   Clear
4:53 AM 54.0 °F 52.0 °F 93% 30.08 in 8.0 mi Calm Calm - N/A   Clear
5:53 AM 53.1 °F 51.1 °F 93% 30.09 in 10.0 mi Calm Calm - N/A   Clear
6:53 AM 52.0 °F 51.1 °F 97% 30.09 in 8.0 mi Calm Calm - N/A   Clear
7:53 AM 55.4 °F 53.6 °F 94% 30.09 in 10.0 mi Calm Calm - N/A   Clear
8:53 AM 62.1 °F 55.9 °F 80% 30.11 in 10.0 mi NW 3.5 mph - N/A   Clear
9:53 AM 69.1 °F 57.0 °F 65% 30.12 in 10.0 mi Calm Calm - N/A   Clear
10:53 AM 73.9 °F 52.0 °F 46% 30.12 in 10.0 mi Variable 3.5 mph - N/A   Clear
11:53 AM 75.9 °F 50.0 °F 40% 30.10 in 10.0 mi Calm Calm - N/A   Clear
12:53 PM 78.1 °F 48.9 °F 36% 30.08 in 10.0 mi Calm Calm - N/A   Clear
1:53 PM 80.1 °F 48.0 °F 32% 30.05 in 10.0 mi East 3.5 mph - N/A   Clear
2:53 PM 81.0 °F 48.0 °F 31% 30.03 in 10.0 mi Variable 3.5 mph - N/A   Clear
3:53 PM 82.0 °F 50.0 °F 33% 30.01 in 10.0 mi East 4.6 mph - N/A   Clear
4:53 PM 82.9 °F 50.0 °F 32% 30.01 in 10.0 mi Variable 3.5 mph - N/A   Clear
5:53 PM 81.0 °F 48.0 °F 31% 30.01 in 10.0 mi ENE 3.5 mph - N/A   Clear
6:53 PM 71.1 °F 57.9 °F 63% 30.01 in 10.0 mi Calm Calm - N/A   Clear
7:53 PM 64.0 °F 55.9 °F 75% 30.01 in 10.0 mi Calm Calm - N/A   Clear
8:53 PM 63.0 °F 55.9 °F 78% 30.02 in 10.0 mi Calm Calm - N/A   Clear
9:53 PM 60.1 °F 57.0 °F 90% 30.03 in 10.0 mi Calm Calm - N/A   Clear
10:53 PM 60.1 °F 55.9 °F 86% 30.04 in 10.0 mi Calm Calm - N/A   Clear
11:53 PM 57.9 °F 55.9 °F 93% 30.04 in 10.0 mi Calm Calm - N/A   Clear